TimeCDT,TemperatureF,Dew PointF,Humidity,Sea Level PressureIn,VisibilityMPH,Wind Direction,Wind SpeedMPH,Gust SpeedMPH,PrecipitationIn,Events,Conditions,WindDirDegrees,DateUTC
12:49 AM,37.4,35.6,93,30.17,10.0,NW,17.3,31.1,0.00,,Overcast,320,2012-10-04 05:49:00
12:52 AM,37.0,35.1,93,30.20,10.0,NW,19.6,26.5,0.00,,Overcast,320,2012-10-04 05:52:00
1:52 AM,37.0,35.1,93,30.19,10.0,NNW,21.9,29.9,0.00,,Overcast,330,2012-10-04 06:52:00
2:52 AM,37.0,35.1,93,30.22,10.0,NW,23.0,28.8,N/A,,Overcast,320,2012-10-04 07:52:00
3:52 AM,37.0,34.0,89,30.23,10.0,NW,21.9,28.8,N/A,,Overcast,320,2012-10-04 08:52:00
4:52 AM,37.0,34.0,89,30.24,10.0,NNW,21.9,29.9,N/A,,Overcast,330,2012-10-04 09:52:00
5:52 AM,37.0,34.0,89,30.25,10.0,NNW,21.9,29.9,N/A,,Overcast,330,2012-10-04 10:52:00
6:52 AM,37.9,33.1,83,30.27,10.0,NW,16.1,27.6,N/A,,Overcast,320,2012-10-04 11:52:00
7:52 AM,37.9,32.0,79,30.28,10.0,NNW,21.9,27.6,N/A,,Overcast,330,2012-10-04 12:52:00
8:47 AM,37.4,33.8,87,30.25,9.0,NNW,18.4,24.2,0.01,Rain,Light Rain,340,2012-10-04 13:47:00
8:52 AM,37.0,34.0,89,30.30,10.0,NNW,17.3,25.3,0.01,Rain,Light Rain,340,2012-10-04 13:52:00
9:09 AM,37.4,33.8,87,30.26,10.0,NNW,18.4,27.6,0.00,,Overcast,330,2012-10-04 14:09:00
9:52 AM,37.9,34.0,86,30.32,10.0,NNW,19.6,25.3,0.00,,Overcast,330,2012-10-04 14:52:00
10:52 AM,39.0,33.1,79,30.32,10.0,NNW,16.1,31.1,N/A,,Overcast,330,2012-10-04 15:52:00
11:52 AM,39.9,30.9,70,30.33,10.0,NNW,18.4,28.8,N/A,,Overcast,330,2012-10-04 16:52:00
12:52 PM,41.0,30.0,65,30.34,10.0,NNW,20.7,29.9,N/A,,Overcast,330,2012-10-04 17:52:00
1:41 PM,42.8,30.2,61,30.29,10.0,NW,17.3,28.8,N/A,,Overcast,310,2012-10-04 18:41:00
1:52 PM,41.0,30.9,67,30.33,10.0,NW,23.0,27.6,N/A,,Overcast,310,2012-10-04 18:52:00
2:52 PM,44.1,28.9,55,30.32,10.0,NW,13.8,25.3,N/A,,Overcast,320,2012-10-04 19:52:00
3:52 PM,44.1,28.0,53,30.32,10.0,NNW,18.4,25.3,N/A,,Overcast,330,2012-10-04 20:52:00
4:52 PM,43.0,27.0,53,30.33,10.0,NNW,13.8,-,N/A,,Overcast,330,2012-10-04 21:52:00
5:52 PM,42.1,28.0,58,30.33,10.0,NW,21.9,27.6,N/A,,Overcast,320,2012-10-04 22:52:00
6:52 PM,42.1,27.0,55,30.33,10.0,NNW,19.6,-,N/A,,Overcast,330,2012-10-04 23:52:00
7:52 PM,41.0,27.0,57,30.35,10.0,NW,15.0,-,N/A,,Overcast,320,2012-10-05 00:52:00
8:52 PM,39.0,25.0,57,30.36,10.0,NNW,12.7,-,N/A,,Partly Cloudy,330,2012-10-05 01:52:00
9:52 PM,37.0,26.1,65,30.36,10.0,NNW,9.2,-,N/A,,Clear,330,2012-10-05 02:52:00
10:52 PM,34.0,26.1,73,30.37,10.0,NW,8.1,-,N/A,,Clear,310,2012-10-05 03:52:00
11:52 PM,30.0,25.0,82,30.37,10.0,WNW,6.9,-,N/A,,Clear,300,2012-10-05 04:52:00